Regional Weather Roundup
Issued by NWS

Home | Current Version | Previous Version | Graphics & Text | Print | Product List | Glossary On
Versions: 1 2 3 4 5 6 7 8 9 10 11 12 13 14 15 16 17 18 19 20 21 22 23 24 25 26 27 28 29 30 31 32 33 34 35 36 37 38 39 40 41 42 43 44 45 46 47 48 49 50
000
ASUS43 KFSD 292010
RWRSD

WEATHER ROUNDUP FOR SOUTH DAKOTA
NATIONAL WEATHER SERVICE SIOUX FALLS SD
300 PM CDT SUN MAR 29 2015

NOTE: "FAIR" INDICATES FEW OR NO CLOUDS BELOW 12,000 FEET WITH NO
SIGNIFICANT WEATHER AND/OR OBSTRUCTIONS TO VISIBILITY.


SDZ001>005-009-010-012>017-292100-
NORTHWEST AND NORTH CENTRAL SOUTH DAKOTA

CITY           SKY/WX    TMP DP  RH WIND       PRES   REMARKS
BUFFALO          N/A     58  30  34 NW21G30   30.02F
FAITH            N/A     59  28  30 W20G25    30.08F
MOBRIDGE       SUNNY     59  25  27 NW20G28   30.03F
$$

SDZ012>016-024>037-041>051-057-063-072>074-292100-
SOUTHWEST AND SOUTH CENTRAL SOUTH DAKOTA

CITY           SKY/WX    TMP DP  RH WIND       PRES   REMARKS
RAPID CTY ARPT SUNNY     63  27  25 N21G29    30.10F
PIERRE         SUNNY     58  26  29 NW20G32   30.09F
CUSTER         MOSUNNY   53  19  26 NW8G22    30.16F
ELLSWORTH AFB  MOSUNNY   62  27  26 NW13G23   30.10F
PHILIP         SUNNY     61  20  20 NW14G26   30.11F
PINE RIDGE     SUNNY     60  25  26 NW12      30.16F
SPEARFISH      FAIR      57  25  28 W20G25    30.14F
WINNER         FAIR      61  19  19 N22G33    30.11
$$

SDZ004>011-016>023-039-040-292100-
NORTHEAST SOUTH DAKOTA

CITY           SKY/WX    TMP DP  RH WIND       PRES   REMARKS
ABERDEEN       MOSUNNY   58  24  27 NW18G37   30.02F
WATERTOWN      SUNNY     54  27  35 NW30G37   29.96R
SISSETON         N/A     55  31  39 NW31G41   29.91F
$$

SDZ017-020-022-023-036>040-048>070-292100-
SOUTHEAST SOUTH DAKOTA

CITY           SKY/WX    TMP DP  RH WIND       PRES   REMARKS
SIOUX FALLS    SUNNY     59  25  27 N29G35    29.98R
HURON          SUNNY     59  24  26 N29G44    30.02S
CHAMBERLAIN    SUNNY     58  23  25 NW23G31   30.09R
MITCHELL       SUNNY     60  23  24 N26G36    30.04S
YANKTON        SUNNY     59  25  27 NW20G37   30.03S
$$

ABBREVIATIONS USED IN REMARKS
   TC - TEMPERATURE IN CELSIUS
  WCI - WIND CHILL INDEX
   HX - HEAT INDEX
  VSB - VISIBILITY



USA.gov is the U.S. government's official web portal to all federal, state and local government web resources and services.